Starlink 4732

operational
NORAD ID: 53870 Int'l Des: 2022-114 Owner: SPXS Country: US Constellation: starlink
LEOCIRCULAR

About Starlink 4732

Description loading...

Live Position

Loading 3D Globe...

Upcoming Passes

Altitude History

Altitude vs Time

uPlot chart will show altitude changes over time

Two-Line Element Set

1 53870U 22114BE 25304.78895828 .00000391 00000-0 42640-4 0 9995
2 53870 53.2158 122.7103 0001039 87.9965 272.1146 15.08835851173932
Epoch: Oct 31, 2025 • Age: 19 hours

Current Status

Altitude 554.4 km
Velocity 7.58 km/s
Sub-Earth Point -42.05°S, 98.29°E
Launch Date Sep 19, 2022
Age 3.1 years
Type internet

Technical Details

Classification Payload
Mass 305.00 kg
Dry Mass 290.00 kg
Total Mass 305.00 kg
Length 0.20 m
Diameter 2.80 m
Span 9.00 m
Shape Box + pan
Manufacturer SPXS
Bus Type Starlink
Phase Status In Orbit
Owner/State SPXS/US

Large Constellations

Loading constellations...